Volver al catálogo

STARLINK-35276

ActivoComunicacionesVLEO
NORAD 66009·PAYLOAD·🇺🇸 United States

Lanzado Oct 16, 2025 desde Cape Canaveral Space Force Station

Loading…

Próximos Pases (próximas 24 horas)

TLE

ActualizadoSource: CelesTrak SupGP

Época: Sep 14, 2026, 21:27 UTC

1 66009C 25232E   26257.89423611  .00012594  00000+0  37220-3 0  2575
2 66009  53.1564 303.6103 0001140  91.2477 294.2783 15.34375765    11

Sigue STARLINK-35276 en tiempo real con AllMySat

Download on the App Store